Hourly Weather Roundup
Issued by NWS

Current Version | Previous Version | Text Only | Print | Product List | Glossary On
Versions: 1 2 3 4 5 6 7 8 9 10 11 12 13 14 15 16 17 18 19 20 21 22 23 24 25 26 27 28 29 30 31 32 33 34 35 36 37 38 39 40 41 42 43 44 45 46 47 48 49 50
858
NZUS43 KILX 192210
HWRCRS

NWR Hourly Weather Roundup
National Weather Service Lincoln IL
400 PM CST THU JAN 19 2017


CITY           SKY/WX    TMP DP  RH WIND       PRES   REMARKS
Champaign      RAIN      42  39  89 E13       29.80F FOG
Lawrenceville  CLOUDY    47  45  93 E9        29.78F FOG
Peoria         CLOUDY    42  41  96 E7        29.79F FOG
Springfield    LGT RAIN  45  43  93 E9        29.76F FOG
$$


CITY           SKY/WX    TMP DP  RH WIND       PRES   REMARKS
Bloomington    LGT RAIN  41  39  93 E13       29.80F FOG     WCI  34
Danville       HVY RAIN  41  40  97 NE7       29.80F
Decatur        LGT RAIN  43  42  97 E13       29.76F
Effingham      FOG       44  44 100 E9        29.77F VSB 1
Flora          CLOUDY    46  45  95 E6        29.75F FOG
Galesburg      DRIZZLE   40  40 100 E8        29.77S WCI  35
Jacksonville   CLOUDY    44  43  97 E10       29.73F FOG
Lacon          DRIZZLE   38  38  99 E8        29.80S WCI  33
La Salle       CLOUDY    37  36  95 E10       29.83F FOG     WCI  30
Lincoln        RAIN      43  43 100 E12       29.77F
Litchfield     CLOUDY    43  43  99 SE9       29.73F FOG

CITY           SKY/WX    TMP DP  RH WIND       PRES   REMARKS
Macomb         LGT RAIN  42  42  99 E12       29.77F
Mattoon        LGT RAIN  44  41  89 E7        29.77F
Moline         LGT RAIN  40  37  89 E9        29.79F FOG     WCI  34
Olney          CLOUDY    45  45 100 E8        29.76F FOG
Paris          DRIZZLE   43  42  95 E8        29.81F
Pontiac        LGT RAIN  40  40 100 E8        29.84S
Quincy         CLOUDY    45  44  97 SE7       29.72S FOG
Rantoul        LGT RAIN  42  42  97 E10       29.82F
Robinson       DRIZZLE   45  43  93 E9        29.80F
Taylorville    DRIZZLE   43  42  98 SE7       29.76F
Terre Haute    RAIN      44  40  85 E8        29.81F FOG
$$


CITY           SKY/WX    TMP DP  RH WIND       PRES   REMARKS
Burlington     CLOUDY    41  41 100 E6        29.73F FOG
Chicago        CLOUDY    41  36  82 E6        29.87F HAZE
Des Moines     FOG       39  38  96 E7        29.71R VSB 1/2 WCI  34
Evansville     CLOUDY    50  47  89 E6        29.78F
Indianapolis   CLOUDY    46  39  76 E10       29.83F
Kansas City    CLOUDY    48  44  86 S3        29.66F
Milwaukee      CLOUDY    37  34  89 CALM      29.89F FOG
St Louis       FOG       47  45  93 E9        29.72S VSB 1/2
$$





USA.gov is the U.S. government's official web portal to all federal, state and local government web resources and services.